Flag for United Kingdom Weather past 2 weeks in Blackpool, England, United Kingdom

Now
70 °F

Passing clouds.


Feels Like: 70 °F
Forecast: 60 / 65 °F
Wind: 21 mph from East

Location: Blackpool Airport

Current Time: Jul 4, 2015 at 12:28:45 AM

Latest Report: Jul 3, 2015 at 8:50 PM


Visibility: N/A

Pressure: 30.12 "Hg

Humidity: 50%

Dew point: 50 °F

Location of BlackpoolLocation

Historic Weather in Blackpool — Graph

°F

Blackpool temperature yesterday

Maximum temperature yesterday: 77 °F (at 3:50 PM)
Minimum temperature yesterday: 54 °F (at 6:20 AM)
Average temperature yesterday: 69 °F

Past Weeks' High & Low Weather Summary

 TemperatureHumidityPressure
High84 °F (Jun 30, 2:50 PM)100% (Jun 20, 7:50 AM)30.30 "Hg (Jun 20, 7:50 AM)
Low52 °F (Jun 22, 6:20 AM)36% (Jul 3, 4:50 PM)29.77 "Hg (Jul 1, 4:50 PM)
Average63 °F73%30.04 "Hg
* Reported Jun 18 8:20 PM — Jul 3 8:50 PM, Blackpool, Weather by CustomWeather, © 2015

Note: Actual official high and low records may vary slightly from our data, if they occured in-between our weather recording intervals... More about our weather records

Advertising

Blackpool weather history for previous 24 hours

 ConditionsComfort  
Time TempWeatherWind HumidityBarometerVisibility
8:50 PM
Fri, Jul 3
70 °FPassing clouds.21 mph50%30.12 "HgN/A
8:20 PM72 °FPassing clouds.18 mph53%30.12 "HgN/A
7:50 PM73 °FSunny.15 mph50%30.12 "Hg10 mi
7:20 PM73 °FSunny.16 mph47%30.12 "Hg10 mi
6:50 PM75 °FSunny.13 mph41%30.12 "Hg10 mi
6:20 PM75 °FSunny.12 mph39%30.15 "Hg10 mi
5:50 PM75 °FSunny.14 mph36%30.15 "Hg10 mi
5:20 PM75 °FSunny.13 mph39%30.15 "Hg10 mi
4:50 PM77 °FPassing clouds.12 mph36%30.18 "HgN/A
4:20 PM75 °FPassing clouds.12 mph41%30.18 "HgN/A
3:50 PM77 °FPassing clouds.12 mph39%30.21 "HgN/A
3:20 PM75 °FPassing clouds.10 mph39%30.21 "HgN/A
2:50 PM75 °FPassing clouds.7 mph44%30.21 "HgN/A
2:20 PM75 °FPassing clouds.8 mph41%30.24 "HgN/A
1:50 PM73 °FPassing clouds.8 mph47%30.24 "HgN/A
1:20 PM72 °FPassing clouds.8 mph47%30.24 "HgN/A
12:50 PM72 °FPassing clouds.9 mph50%30.24 "HgN/A
11:50 AM70 °FPassing clouds.10 mph57%30.27 "HgN/A
11:20 AM68 °FPassing clouds.10 mph64%30.27 "HgN/A
10:50 AM68 °FPassing clouds.9 mph64%30.27 "HgN/A
10:20 AM66 °FPassing clouds.10 mph68%30.30 "HgN/A
9:50 AM64 °FSunny.10 mph73%30.30 "Hg10 mi
9:20 AM63 °FSunny.9 mph77%30.30 "Hg10 mi
8:50 AM63 °FSunny.10 mph77%30.30 "Hg10 mi
8:20 AM61 °FSunny.10 mph83%30.27 "Hg10 mi
7:50 AM59 °FSunny.9 mph88%30.27 "Hg10 mi
7:20 AM57 °FSunny.8 mph88%30.27 "Hg10 mi
6:50 AM55 °FSunny.6 mph94%30.27 "Hg10 mi
6:20 AM54 °FSunny.8 mph94%30.27 "Hg10 mi
Weather by CustomWeather, © 2015

See weather overviewHow to use our weather pages